This demonstration page uses our WeatherBlox Daily Observations layout. Learn more.

36.17497, -115.13722

Hourly Observations for July 29, 2015

Temp ( °F °C ) Dew Point ( °F °C ) Humidity (%) Winds ( mph kmh ) Pressure ( in mb ) Visibility ( mi km ) Precip ( " mm )
12:53 am 00:53 Clear 83 28.3 38 3.3 20 20 N 3 6 29.88 1012 10 16.0934 0 0
1:53 am 01:53 Clear 81 27.2 36 2.2 20 20 N 5 7 29.88 1012 10 16.0934 0 0
2:53 am 02:53 Clear 80 26.7 35 1.7 20 20 NNW 5 7 29.88 1012 10 16.0934 0 0
3:53 am 03:53 Clear 82 27.8 31 -0.6 16 16 NNE 7 11 29.89 1012 10 16.0934 0 0
4:53 am 04:53 Clear 79 26.1 33 0.6 19 19 Calm 29.92 1013 10 16.0934 0 0
5:53 am 05:53 Sunny 77 25 38 3.3 24 24 Calm 29.94 1014 10 16.0934 0 0
6:53 am 06:53 Sunny 81 27.2 35 1.7 19 19 Calm 29.96 1015 10 16.0934 0 0
7:53 am 07:53 Sunny 87 30.6 35 1.7 16 16 Calm 29.98 1015 10 16.0934 0 0
8:53 am 08:53 Sunny 90 32.2 33 0.6 13 13 S 7 11 29.98 1015 10 16.0934 0 0
9:53 am 09:53 Sunny 93 33.9 32 0 11 11 SE 7 11 29.98 1015 10 16.0934 0 0
10:53 am 10:53 Sunny 96 35.6 30 -1.1 10 10 SE 12 19 29.98 1015 10 16.0934 0 0
11:53 am 11:53 Sunny 97 36.1 31 -0.6 10 10 SE 12 19 29.98 1015 10 16.0934 0 0
12:53 pm 12:53 Sunny 98 36.7 33 0.6 10 10 Calm 29.97 1015 10 16.0934 0 0
1:53 pm 13:53 Sunny 101 38.3 35 1.7 10 10 ESE 8 13 29.95 1014 10 16.0934 0 0
2:53 pm 14:53 Sunny 102 38.9 37 2.8 10 10 undefined N/A 29.93 1013 10 16.0934 0 0
3:53 pm 15:53 Sunny 100 37.8 36 2.2 11 11 S 7 11 29.91 1013 10 16.0934 0 0
4:53 pm 16:53 Sunny 100 37.8 38 3.3 12 12 S 9 15 29.89 1012 10 16.0934 0 0
5:53 pm 17:53 Sunny 97 36.1 48 8.9 19 19 S 10 17 29.9 1013 10 16.0934 0 0
6:53 pm 18:53 Sunny 95 35 49 9.4 21 21 S 9 15 29.9 1013 10 16.0934 0 0
7:53 pm 19:53 Clear 94 34.4 50 10 22 22 SW 8 13 29.9 1013 10 16.0934 0 0
8:53 pm 20:53 Clear 94 34.4 49 9.4 21 21 SSW 7 11 29.91 1013 10 16.0934 0 0
9:53 pm 21:53 Clear 91 32.8 47 8.3 22 22 SE 5 7 29.92 1013 10 16.0934 0 0
10:53 pm 22:53 Clear 91 32.8 49 9.4 24 24 S 10 17 29.91 1013 10 16.0934 0 0
11:53 pm 23:53 Clear 92 33.3 49 9.4 23 23 SSW 7 11 29.92 1013 10 16.0934 0 0

Powered by AerisWeather